SCP
0 0 0 0 0 0 0 0 0 0 0 0 0 0 0 0 0 0 0 0 0 0 0 0 0 0 0 0 0 0 0 0 0 0 0 0 0 0 0 0 0 0 0 0 0 0 0 0 0 0 0 0 0 0
0 0 0 0 0 0 0 0 0 0 0 0 0 0 0 0 0 0 0 0 0 0 0 0 0 0 0 0 0 0 0 0 0 0 0 0 0 0 0 0 0 0 0 0 0 0 0 0 0 0 0 0 0 0
0 0 0 0 0 0 0 0 0 0 0 0 0 0 0 0 0 0 0 0 0 0 0 0 0 0 0 0 0 0 0 0 0 0 0 0 0 0 0 0 0 0 0 0 0 0 0 0 0 0 0 0 0 0
0 0 0 0 0 0 0 0 0 -0 -0 -0 -0 0 0 0 0 0 0 0 0 0 0 0 0 0 0 0 0 0 0 0 0 0 0 0 0 0 0 0 0 0 0 0 0 0 0 0 0 0 0 0 0 0
0 0 0 0 0 0 0 0 -0 0 0 0 -0 -0 0 0 0 0 0 0 0 0 0 0 0 0 0 0 0 0 0 0 0 0 0 0 0 0 0 0 0 0 0 0 0 0 0 0 0 0 0 0 0 -0
0 0 0 0 0 -0 -0 -0 -0 -0 0 0 -0 0 0 0 0 0 0 0 0 0 0 0 0 0 0 0 0 0 0 0 0 0 0 0 0 0 0 0 0 0 0 0 0 0 0 0 0 0 0 -0 -0 -0
0 0 0 0 -0 -0 -0 -0 -0 -0 -0 -0 -0 0 -0 0 0 0 0 0 0 0 0 0 0 0 0 0 0 0 0 0 0 0 0 0 0 0 0 0 0 0 0 0 0 0 0 0 0 0 0 0 -0 -0
0 0 -0 -0 -0 -0 -0 -0 -0 -0 -0 -0 -0 -0 -0 0 0 0 0 -0 0 0 0 0 0 0 0 0 0 0 0 0 0 0 0 0 0 0 0 0 0 0 0 0 0 0 0 0 0 0 0 0 -0 -0
-0 -0 0 0 -0 -0 -0 -0 -0 -0 -0 -0 -0 -0 0 0 0 0 -0 0 0 0 0 0 0 0 0 0 0 0 0 0 0 0 0 0 0 0 0 0 0 0 0 0 0 0 0 0 0 0 0 -0 -0 -0
-0 0 0 -0 -0 -0 -0 -0 -0 -0 -0 -0 0 0 0 0 0 -0 0 0 0 0 0 0 0 0 0 0 0 0 0 0 0 0 0 0 0 0 0 0 0 0 0 0 0 0 0 0 0 0 0 -0 -0 -0
0 -0 0 -0 -0 -0 -0 -0 -0 -0 -0 0 0 0 0 0 0 0 0 0 0 0 0 0 0 0 0 0 0 0 0 0 0 0 0 0 0 0 0 0 -0 0 0 0 0 0 0 0 0 0 -0 -0 -0 -0
0 -0 -0 0 -0 -0 -0 -0 -0 -0 0 0 0 0 0 0 0 0 0 0 0 0 0 0 0 0 0 0 0 0 0 0 0 0 -0 0 0 -0 0 0 -0 0 0 0 0 0 0 0 0 -0 -0 -0 -0 -0
-0 -0 -0 -0 -0 -0 -0 -0 -0 -0 0 0 0 0 0 0 -0 -0 0 0 0 0 0 0 0 0 0 0 0 0 0 0 0 0 0 0 0 0 0 0 0 0 0 0 0 0 0 -0 -0 -0 -0 -0 -0 -0
-0 -0 -0 -0 -0 -0 -0 -0 -0 0 0 0 0 0 0 0 0 0 0 0 -0 0 0 0 0 0 0 0 0 0 0 0 0 -0 0 -0 -0 0 0 0 0 0 0 0 0 0 -0 -0 0 0 -0 -0 -0 -0
-0 -0 -0 -0 -0 -0 -0 -0 -0 0 0 0 0 0 0 0 -0 0 0 0 0 0 0 0 0 0 0 0 0 0 0 0 -0 -0 0 0 -0 -0 0 0 -0 -0 -0 -0 -0 0 0 0 0 -0 -0 0 0 -0
-0 -0 0 -0 0 0 0 -0 -0 0 0 0 0 0 0 -0 0 0 0 0 0 0 0 0 0 0 0 0 0 0 0 0 -0 -0 -0 -0 -0 -0 -0 -0 -0 -0 -0 0 0 0 0 0 0 0 -0 -0 -0 -0
0 -0 -0 -0 0 -0 0 0 0 0 0 0 0 0 0 0 0 0 0 0 0 0 0 0 0 0 0 0 0 0 -0 0 -0 0 -0 -0 -0 -0 -0 -0 -0 0 0 0 0 0 0 -0 -0 0 0 -0 -0 -0
-0 0 -0 -0 -0 0 0 0 0 0 0 0 0 0 0 0 0 0 0 0 0 0 0 0 0 0 0 0 0 0 0 0 0 -0 0 -0 -0 -0 -0 -0 0 0 0 0 0 0 -0 -0 -0 -0 0 -0 -0 -0
-0 -0 -0 -0 0 0 0 0 0 0 0 0 0 0 0 0 0 0 -0 0 0 0 0 0 0 0 0 0 -0 -0 0 -0 0 0 -0 -0 0 -0 -0 -0 -0 0 0 0 -0 0 0 -0 -0 -0 -0 -0 0 0
-0 -0 -0 0 0 0 0 0 0 0 0 0 0 0 0 0 0 -0 -0 -0 0 0 0 0 0 0 0 -0 -0 0 -0 0 0 0 -0 -0 -0 -0 -0 -0 -0 -0 0 -0 -0 -0 -0 -0 -0 0 0 0 0 0
-0 0 0 0 0 0 0 0 0 0 0 0 0 0 0 0 -0 -0 0 -0 0 0 0 0 0 0 -0 -0 0 -0 0 0 0 -0 -0 -0 -0 -0 -0 -0 -0 -0 0 0 0 0 0 0 0 0 0 0 0 0
0 0 0 0 0 0 0 0 0 0 0 0 0 0 0 0 0 0 0 0 0 0 0 0 0 0 -0 0 -0 -0 -0 0 -0 -0 -0 0 -0 -0 -0 -0 -0 0 0 0 0 0 0 0 0 0 0 0 0 0
-0 0 0 0 0 0 0 0 0 0 0 0 0 0 0 0 -0 -0 0 0 0 0 0 0 0 -0 -0 -0 0 0 -0 -0 0 -0 -0 0 -0 -0 -0 0 0 -0 -0 0 0 0 0 0 0 0 0 0 0 0
0 0 0 0 0 0 0 0 0 0 0 0 0 -0 -0 -0 -0 -0 0 0 0 0 0 0 0 0 0 -0 -0 -0 0 -0 -0 -0 -0 -0 -0 -0 -0 -0 -0 -0 0 0 0 0 0 0 0 0 0 0 0 0
0 0 0 0 0 0 0 0 0 0 0 -0 -0 -0 -0 -0 -0 -0 0 0 0 0 0 0 -0 0 -0 -0 0 0 0 -0 -0 -0 0 -0 -0 -0 -0 -0 -0 0 0 0 0 0 0 0 0 0 0 0 0 0
0 0 0 0 0 0 0 0 0 0 0 0 0 -0 -0 -0 0 0 0 0 -0 -0 0 0 0 0 0 0 0 0 0 0 -0 -0 0 -0 -0 -0 -0 -0 0 0 0 0 0 0 0 0 0 0 0 0 0 0
0 0 0 0 0 0 0 0 0 0 0 0 -0 -0 -0 0 0 0 0 0 -0 0 0 0 -0 -0 -0 0 0 0 0 0 0 -0 -0 -0 0 0 0 0 0 0 0 0 0 0 0 0 0 0 0 0 0 0
0 0 0 0 0 0 0 0 -0 0 0 -0 -0 -0 0 0 0 0 0 0 0 0 0 0 0 -0 -0 -0 -0 -0 -0 -0 -0 -0 -0 -0 0 0 0 0 0 0 0 0 0 0 0 0 0 0 0 0 0 0
0 0 0 0 0 0 0 0 -0 -0 0 0 0 -0 0 0 0 0 0 0 0 0 0 -0 -0 -0 -0 -0 0 0 -0 -0 -0 -0 -0 0 0 0 0 0 0 0 0 0 0 0 0 0 0 0 0 0 0 0
0 0 -0 0 0 0 0 -0 -0 0 0 0 0 0 0 0 0 0 0 0 0 0 0 0 -0 -0 -0 -0 -0 -0 -0 0 0 -0 -0 0 0 0 0 0 0 0 0 0 0 0 0 0 0 0 0 0 0 0
0 0 0 0 0 0 -0 -0 0 0 0 0 0 0 0 0 0 0 0 0 0 0 0 0 0 0 -0 -0 -0 -0 0 0 0 0 0 0 0 0 0 0 0 0 0 0 0 0 0 0 0 0 0 0 0 0
0 0 0 0 -0 -0 -0 0 0 0 0 0 0 0 0 0 0 0 0 0 0 0 0 0 0 0 0 0 0 0 0 0 0 0 0 0 0 0 0 0 0 0 0 0 0 0 0 0 0 0 0 0 0 0
0 0 0 0 -0 -0 -0 -0 0 0 0 0 0 0 0 0 0 0 0 0 0 0 0 0 0 0 0 0 0 0 0 0 0 0 0 0 0 0 0 0 0 0 0 0 0 0 0 0 0 0 0 0 0 0
Wind_Speed_500mb
50 49 48 45 40 42 44 45 46 43 39 36 33 32 29 22 18 22 13 16 17 9 21 22 16 11 4 4 6 3 3 6 6 5 5 3 3 4 4 6 10 9 12 7 7 7 12 9 4 0 5 5 4 11
50 49 48 47 45 41 42 46 47 44 36 30 29 29 28 16 17 23 18 19 20 13 12 14 27 30 23 12 8 5 8 3 3 6 3 3 4 6 2 5 5 7 8 6 9 3 5 9 7 6 13 5 10 15
49 47 44 46 47 40 35 44 42 44 39 29 27 25 19 15 12 19 19 11 15 9 17 9 4 3 6 33 17 7 5 5 7 7 7 3 2 3 1 1 4 3 9 4 5 9 13 3 2 10 13 14 13 17
47 46 40 42 43 41 38 38 46 42 42 33 28 26 21 12 12 16 7 9 5 2 1 4 11 9 5 6 29 14 7 16 16 10 8 3 1 3 3 4 3 9 13 9 6 3 12 6 6 15 12 12 18 25
50 45 38 41 42 41 34 38 46 43 42 34 23 24 23 17 17 14 15 14 15 7 2 11 11 1 15 18 15 16 12 14 9 7 5 3 4 1 2 3 5 8 10 8 9 21 13 11 20 12 12 19 24 33
50 46 36 40 41 41 38 41 48 39 40 22 19 18 14 14 15 11 6 8 22 25 2 3 5 6 27 22 17 13 11 10 8 6 3 4 5 2 3 5 7 9 9 14 9 17 25 33 21 14 17 22 27 37
45 37 37 38 41 41 35 42 43 34 30 15 19 11 14 13 8 10 2 4 16 20 5 5 5 9 29 29 16 11 8 6 4 4 3 4 5 6 3 4 9 11 13 9 25 43 28 10 16 17 21 27 28 34
39 35 36 39 42 38 33 35 39 35 22 13 16 13 14 7 3 10 19 17 21 11 6 1 2 8 20 8 6 7 6 5 7 6 4 5 4 6 6 17 11 17 10 17 24 18 28 28 20 20 20 31 42 43
35 34 37 37 39 37 29 27 34 27 18 13 15 10 2 1 3 9 4 15 16 8 6 3 4 5 13 7 8 6 5 2 2 3 5 6 5 8 11 11 13 9 22 37 35 32 29 25 23 16 15 25 38 44
36 33 34 35 34 34 23 24 27 21 15 14 9 5 5 4 12 15 5 4 2 4 1 1 2 3 8 7 5 7 3 3 4 8 8 6 6 22 14 29 29 10 19 41 42 31 30 28 24 20 16 21 34 46
38 34 32 30 34 27 19 22 21 16 12 9 5 7 8 20 4 5 5 3 2 1 7 6 10 2 3 4 4 5 3 2 4 4 7 4 5 7 26 28 29 20 38 26 17 22 19 24 21 19 20 16 29 47
35 34 32 27 27 22 15 17 16 11 14 7 10 4 8 4 3 1 1 1 4 6 10 9 10 6 6 6 5 6 3 4 6 13 5 5 2 22 36 26 27 31 26 27 21 25 25 22 18 19 22 14 20 35
34 33 29 29 24 19 15 12 14 11 5 6 6 5 5 4 2 4 5 4 4 10 15 12 5 6 6 4 3 4 5 6 1 5 4 3 5 27 32 41 35 34 31 30 26 24 21 19 15 14 21 20 21 27
34 25 27 28 22 18 12 7 5 0 7 6 3 3 3 5 7 6 3 2 3 7 23 26 10 5 3 3 3 4 6 4 6 7 6 10 27 19 43 40 41 39 32 27 21 20 17 12 11 14 19 19 16 26
29 20 18 16 13 3 3 5 7 4 4 3 2 5 7 9 13 11 19 8 3 26 26 17 8 6 2 2 5 4 6 8 4 4 4 21 35 47 42 41 38 34 30 27 24 19 14 10 11 17 21 19 15 24
15 8 7 12 1 2 5 3 0 5 4 3 5 7 13 13 6 8 11 1 11 20 13 6 5 4 6 5 8 10 5 2 4 6 29 54 52 47 42 35 33 32 29 25 21 19 16 15 15 18 21 24 17 24
12 4 4 8 3 2 8 4 2 2 4 4 8 17 27 28 17 5 1 8 15 20 2 4 5 5 5 5 5 4 2 5 27 46 53 51 51 48 44 38 32 28 26 23 21 21 19 18 16 13 21 21 15 20
10 6 6 1 2 5 7 3 2 4 6 11 10 16 16 12 12 6 5 13 14 4 4 4 7 4 3 3 1 0 14 42 56 54 41 45 45 43 38 35 30 28 25 21 19 22 18 18 18 20 20 16 16 20
9 9 3 7 3 2 2 4 3 5 10 14 18 19 14 12 12 4 5 8 8 5 6 5 5 3 2 6 7 32 46 55 52 49 44 36 31 28 28 29 29 30 22 17 15 19 21 22 20 12 12 14 17 20
18 10 9 9 6 4 3 4 4 8 9 7 13 17 9 3 16 13 4 5 3 3 5 3 2 7 3 10 39 52 52 53 56 54 45 38 32 31 30 28 28 30 24 23 23 21 15 18 20 14 13 17 17 23
13 8 10 12 7 7 6 4 7 9 9 8 11 10 2 9 5 1 4 13 4 2 4 5 7 9 3 22 36 45 49 48 48 50 47 39 32 22 20 31 33 25 20 18 17 17 13 18 17 14 14 18 16 19
7 12 10 10 4 4 8 9 9 12 8 11 12 9 4 3 2 3 7 5 4 1 5 6 13 12 28 32 35 28 37 34 37 40 40 33 29 35 34 33 30 26 21 18 12 13 14 13 11 13 14 14 15 20
9 9 3 6 5 6 9 8 7 5 2 6 7 6 4 3 3 6 5 3 4 5 24 5 12 13 35 39 37 34 36 43 41 34 32 33 35 33 35 29 21 19 19 17 8 6 8 6 7 12 13 16 19 21
7 5 5 6 11 7 6 6 7 6 4 0 1 4 2 2 1 2 4 4 5 17 18 7 12 26 40 45 44 42 39 34 34 31 27 33 45 41 31 25 18 12 9 9 4 3 4 3 5 9 14 18 19 22
6 8 7 6 9 6 6 4 4 1 5 7 6 4 4 6 2 3 2 3 14 21 19 12 27 35 46 46 43 40 38 36 39 50 47 38 38 37 30 24 17 11 6 8 4 3 1 1 6 10 13 17 20 22
6 9 12 9 7 7 5 4 5 8 5 4 2 5 6 3 3 2 3 12 32 35 12 3 34 42 43 43 45 46 47 43 39 42 43 35 23 16 26 20 14 9 7 5 3 1 2 2 7 12 15 17 20 24
5 8 13 13 9 8 2 6 6 4 1 4 1 4 3 2 3 1 1 24 41 10 7 21 33 35 47 46 47 50 50 46 33 26 32 34 22 12 4 5 9 12 12 7 7 7 5 6 11 16 18 20 25 29
11 7 8 4 8 7 2 2 2 4 4 7 4 4 4 2 3 0 6 31 25 5 8 26 30 38 42 46 48 48 43 38 35 33 36 33 22 16 12 11 12 12 10 11 13 13 11 11 15 18 19 22 25 27
8 7 4 4 3 5 3 1 1 1 7 8 4 3 3 4 4 5 18 35 19 5 11 40 44 42 45 42 51 43 38 36 33 46 46 41 34 24 14 5 4 3 7 9 9 10 12 15 16 17 19 20 21 21
9 16 9 5 4 4 3 4 3 3 3 5 4 2 3 7 7 13 24 33 30 14 35 41 43 41 42 53 46 38 27 19 14 10 22 29 27 25 19 12 6 2 4 8 9 9 12 13 13 12 11 12 14 17
6 11 6 5 4 4 4 2 6 5 4 3 5 3 7 5 11 24 29 13 17 32 43 48 52 52 51 44 36 37 37 31 24 18 13 13 19 18 14 10 6 1 4 6 7 7 7 7 8 10 12 14 17 19
7 7 11 5 5 5 4 4 4 3 3 3 1 1 4 7 7 22 17 10 28 42 54 58 52 47 26 22 25 21 13 15 31 24 16 15 16 14 11 9 7 3 2 4 4 4 5 6 7 9 11 13 16 17
8 9 8 8 6 6 9 7 5 3 3 4 5 8 6 7 9 19 38 23 23 42 53 47 38 33 34 37 32 22 16 21 25 22 16 12 8 7 9 8 6 3 2 4 4 5 6 7 7 8 10 12 14 16
Wind_Direction_500mb
320 320 321 325 323 327 329 330 330 324 316 314 312 307 310 310 290 289 279 248 231 241 275 274 271 231 203 154 144 238 86 2 36 68 113 239 174 284 56 124 159 168 175 176 169 184 255 345 327 248 224 360 36 6
315 314 319 321 319 315 319 320 322 325 323 322 315 310 311 301 296 287 288 257 235 239 266 269 270 257 252 226 188 150 134 114 126 91 48 85 20 5 238 157 162 185 185 159 167 223 187 71 114 339 335 43 30 1
320 317 315 321 327 315 315 320 317 322 313 309 308 313 302 296 297 279 288 255 261 266 283 283 12 66 202 220 198 142 137 125 93 83 129 109 40 143 39 79 112 358 128 189 142 214 219 17 258 43 74 68 22 356
323 323 318 324 322 324 310 317 324 316 316 290 288 300 298 283 308 276 340 266 275 266 356 272 63 79 85 123 191 220 205 132 117 86 78 98 159 183 252 242 163 213 159 192 218 179 173 198 26 121 79 32 4 352
326 327 321 326 328 324 315 315 319 320 316 310 270 286 293 274 287 294 268 272 240 233 273 293 309 233 165 136 144 145 136 123 97 80 78 200 243 108 235 352 252 202 191 155 216 174 145 105 120 97 52 32 13 4
326 326 326 328 329 327 326 322 321 321 321 308 303 301 276 287 288 278 277 227 201 213 299 350 337 114 165 166 147 136 106 103 92 110 174 245 256 196 225 243 268 197 184 148 147 172 133 128 108 77 66 39 27 22
324 324 331 327 329 326 327 326 331 330 328 309 309 299 313 302 295 228 234 335 192 185 170 322 9 96 171 155 137 144 136 113 115 142 229 242 270 107 260 236 263 210 161 144 134 134 116 158 118 98 68 41 32 26
325 326 323 327 327 325 321 324 337 346 328 327 333 331 317 292 224 262 265 246 164 143 151 139 262 138 162 118 100 131 138 153 183 194 218 224 258 188 244 243 285 178 186 138 155 181 142 126 117 107 73 47 38 30
324 323 326 326 326 329 321 326 342 341 346 330 333 333 313 49 336 172 3 131 113 99 143 127 188 179 163 100 108 124 139 167 207 212 242 177 221 210 227 210 128 121 155 131 124 126 125 122 120 103 67 37 30 26
323 318 322 321 325 328 322 323 339 344 330 328 359 10 11 360 120 138 65 132 69 8 181 196 275 177 142 123 137 153 140 223 212 211 180 225 255 254 259 184 178 129 150 153 135 136 138 121 101 79 60 51 36 29
332 329 324 327 328 329 328 332 340 344 349 6 28 35 114 140 71 42 54 57 91 286 207 221 218 120 86 135 128 203 183 230 248 198 197 223 250 200 163 161 163 166 167 171 140 134 131 126 109 78 52 60 38 29
322 326 327 328 320 326 320 341 349 349 11 52 39 70 152 2 1 332 161 249 219 239 179 168 195 158 108 111 117 186 232 184 254 151 217 235 247 182 163 169 156 146 140 136 125 126 121 109 104 72 44 54 37 27
317 320 323 321 316 319 310 323 1 347 8 12 17 39 27 356 304 256 207 226 230 174 162 153 114 100 118 145 115 189 233 234 238 215 221 339 146 121 151 138 134 135 131 123 114 116 109 100 95 74 44 50 40 27
315 316 321 316 305 303 307 300 312 216 8 20 22 328 228 187 246 234 270 276 290 162 147 137 98 96 97 80 157 220 229 298 246 203 185 168 196 157 139 134 136 139 130 127 140 134 122 102 103 83 49 46 46 34
315 338 343 2 349 60 341 124 118 24 0 332 305 260 229 266 283 270 302 259 94 151 130 106 99 118 134 178 197 235 238 230 229 157 146 157 160 147 137 135 132 131 130 126 124 125 115 104 103 85 56 51 62 32
325 331 5 4 3 322 43 60 220 340 321 292 264 287 278 270 316 344 295 146 146 147 124 137 129 175 208 205 205 215 234 204 149 141 134 140 139 140 137 137 136 133 132 127 120 114 95 86 117 92 62 53 60 33
303 275 324 341 228 240 215 237 264 286 287 269 258 271 273 277 271 273 271 141 173 152 144 199 223 229 171 211 236 203 247 148 129 126 137 140 142 140 136 132 128 129 127 123 131 116 94 79 96 138 59 57 59 39
272 207 347 296 209 181 220 275 335 304 266 261 261 280 302 286 308 10 92 162 172 174 211 233 278 257 259 291 269 93 110 132 137 137 142 140 137 135 136 133 137 129 121 116 118 123 97 71 79 103 64 61 67 55
185 182 187 193 180 115 259 293 272 278 261 278 286 305 296 300 300 274 190 206 272 233 286 266 252 265 223 207 163 134 135 139 138 138 134 134 136 139 148 138 128 142 116 105 110 119 105 77 73 89 53 56 64 53
179 165 180 183 189 319 284 252 247 267 267 322 326 339 313 330 123 144 135 7 59 207 252 232 211 245 220 157 162 151 148 146 141 136 141 139 131 132 127 133 138 138 120 106 102 119 113 77 60 60 60 67 54 50
169 182 173 191 231 283 265 262 250 251 300 286 315 322 125 149 137 240 338 342 3 35 326 294 316 333 128 162 161 156 153 155 153 150 148 147 146 150 151 151 141 144 131 119 106 96 78 77 63 47 36 51 53 39
168 172 171 208 258 267 269 243 258 299 275 286 316 340 90 73 31 26 338 344 321 183 185 328 1 35 161 161 162 157 157 154 150 145 145 149 142 143 141 148 150 147 137 128 114 101 103 90 64 48 36 40 16 16
175 181 216 209 256 256 264 222 253 250 264 319 346 339 41 38 26 345 335 273 283 250 163 212 354 181 170 160 146 143 144 141 142 146 153 154 147 149 146 146 150 150 143 138 138 116 119 107 65 54 42 23 16 19
174 201 229 220 210 268 260 240 228 249 239 6 155 246 174 205 356 280 280 288 203 180 170 91 142 165 168 160 159 151 154 158 157 159 162 158 151 143 149 143 140 132 123 143 170 121 124 88 43 22 16 15 20 20
204 213 222 230 214 238 248 225 214 164 246 204 204 230 219 174 198 217 237 231 162 164 147 145 165 162 162 173 174 170 172 177 168 158 158 161 156 151 149 143 131 109 46 312 272 302 104 61 19 19 26 31 28 21
223 219 189 215 222 198 235 233 223 218 222 206 138 185 174 163 248 255 295 166 166 168 180 138 162 159 158 161 165 171 175 178 175 170 171 179 181 175 164 157 154 117 80 17 338 268 185 48 36 24 19 24 26 25
240 256 224 229 253 277 317 349 348 332 222 236 250 190 183 226 234 259 12 147 170 167 280 180 172 175 169 168 171 175 175 178 185 183 184 186 173 155 125 151 134 99 74 60 76 68 53 37 29 25 21 21 25 25
247 267 209 201 228 236 170 158 61 311 323 346 319 181 203 255 191 249 98 177 172 5 159 170 186 183 173 175 172 169 168 172 164 164 161 154 155 150 142 122 81 66 57 62 64 62 51 29 19 22 23 20 20 20
247 245 226 263 180 96 88 49 94 295 327 325 324 161 227 210 207 195 169 182 184 200 180 170 163 172 158 167 172 178 186 178 164 161 166 162 159 159 163 149 98 58 34 39 40 32 28 17 18 19 20 19 20 18
243 201 195 181 161 177 176 193 203 268 307 304 285 228 188 181 164 163 157 175 181 160 166 161 161 162 175 167 161 159 164 175 175 187 175 173 174 173 182 199 220 290 4 358 4 22 16 16 17 21 25 29 32 31
188 153 120 112 133 183 196 229 261 269 270 301 226 240 205 202 190 167 169 189 190 173 183 183 176 174 170 171 180 180 180 184 190 195 185 171 166 170 183 205 220 269 357 358 357 4 10 14 23 33 38 38 36 33
150 149 143 137 170 162 173 203 245 245 210 205 132 285 202 211 219 189 193 142 173 184 187 180 176 173 174 209 200 189 189 201 196 199 194 174 168 176 183 183 173 156 33 19 22 28 33 27 37 44 44 42 37 33
129 132 119 116 135 166 196 200 218 227 218 207 197 189 206 204 231 195 197 178 163 176 185 187 184 195 206 196 190 186 164 154 167 175 182 180 174 169 168 167 170 170 344 2 37 48 44 39 37 41 42 39 36 32
Wind_Speed_850mb
50 49 48 45 40 42 44 45 46 43 39 36 33 32 29 22 18 22 13 16 17 9 21 22 16 11 4 4 6 3 3 6 6 5 5 3 3 4 4 6 10 9 12 7 7 7 12 9 4 0 5 5 4 11
50 49 48 47 45 41 42 46 47 44 36 30 29 29 28 16 17 23 18 19 20 13 12 14 27 30 23 12 8 5 8 3 3 6 3 3 4 6 2 5 5 7 8 6 9 3 5 9 7 6 13 5 10 15
49 47 44 46 47 40 35 44 42 44 39 29 27 25 19 15 12 19 19 11 15 9 17 9 4 3 6 33 17 7 5 5 7 7 7 3 2 3 1 1 4 3 9 4 5 9 13 3 2 10 13 14 13 17
47 46 40 42 43 41 38 38 46 42 42 33 28 26 21 12 12 16 7 9 5 2 1 4 11 9 5 6 29 14 7 16 16 10 8 3 1 3 3 4 3 9 13 9 6 3 12 6 6 15 12 12 18 25
50 45 38 41 42 41 34 38 46 43 42 34 23 24 23 17 17 14 15 14 15 7 2 11 11 1 15 18 15 16 12 14 9 7 5 3 4 1 2 3 5 8 10 8 9 21 13 11 20 12 12 19 24 33
50 46 36 40 41 41 38 41 48 39 40 22 19 18 14 14 15 11 6 8 22 25 2 3 5 6 27 22 17 13 11 10 8 6 3 4 5 2 3 5 7 9 9 14 9 17 25 33 21 14 17 22 27 37
45 37 37 38 41 41 35 42 43 34 30 15 19 11 14 13 8 10 2 4 16 20 5 5 5 9 29 29 16 11 8 6 4 4 3 4 5 6 3 4 9 11 13 9 25 43 28 10 16 17 21 27 28 34
39 35 36 39 42 38 33 35 39 35 22 13 16 13 14 7 3 10 19 17 21 11 6 1 2 8 20 8 6 7 6 5 7 6 4 5 4 6 6 17 11 17 10 17 24 18 28 28 20 20 20 31 42 43
35 34 37 37 39 37 29 27 34 27 18 13 15 10 2 1 3 9 4 15 16 8 6 3 4 5 13 7 8 6 5 2 2 3 5 6 5 8 11 11 13 9 22 37 35 32 29 25 23 16 15 25 38 44
36 33 34 35 34 34 23 24 27 21 15 14 9 5 5 4 12 15 5 4 2 4 1 1 2 3 8 7 5 7 3 3 4 8 8 6 6 22 14 29 29 10 19 41 42 31 30 28 24 20 16 21 34 46
38 34 32 30 34 27 19 22 21 16 12 9 5 7 8 20 4 5 5 3 2 1 7 6 10 2 3 4 4 5 3 2 4 4 7 4 5 7 26 28 29 20 38 26 17 22 19 24 21 19 20 16 29 47
35 34 32 27 27 22 15 17 16 11 14 7 10 4 8 4 3 1 1 1 4 6 10 9 10 6 6 6 5 6 3 4 6 13 5 5 2 22 36 26 27 31 26 27 21 25 25 22 18 19 22 14 20 35
34 33 29 29 24 19 15 12 14 11 5 6 6 5 5 4 2 4 5 4 4 10 15 12 5 6 6 4 3 4 5 6 1 5 4 3 5 27 32 41 35 34 31 30 26 24 21 19 15 14 21 20 21 27
34 25 27 28 22 18 12 7 5 0 7 6 3 3 3 5 7 6 3 2 3 7 23 26 10 5 3 3 3 4 6 4 6 7 6 10 27 19 43 40 41 39 32 27 21 20 17 12 11 14 19 19 16 26
29 20 18 16 13 3 3 5 7 4 4 3 2 5 7 9 13 11 19 8 3 26 26 17 8 6 2 2 5 4 6 8 4 4 4 21 35 47 42 41 38 34 30 27 24 19 14 10 11 17 21 19 15 24
15 8 7 12 1 2 5 3 0 5 4 3 5 7 13 13 6 8 11 1 11 20 13 6 5 4 6 5 8 10 5 2 4 6 29 54 52 47 42 35 33 32 29 25 21 19 16 15 15 18 21 24 17 24
12 4 4 8 3 2 8 4 2 2 4 4 8 17 27 28 17 5 1 8 15 20 2 4 5 5 5 5 5 4 2 5 27 46 53 51 51 48 44 38 32 28 26 23 21 21 19 18 16 13 21 21 15 20
10 6 6 1 2 5 7 3 2 4 6 11 10 16 16 12 12 6 5 13 14 4 4 4 7 4 3 3 1 0 14 42 56 54 41 45 45 43 38 35 30 28 25 21 19 22 18 18 18 20 20 16 16 20
9 9 3 7 3 2 2 4 3 5 10 14 18 19 14 12 12 4 5 8 8 5 6 5 5 3 2 6 7 32 46 55 52 49 44 36 31 28 28 29 29 30 22 17 15 19 21 22 20 12 12 14 17 20
18 10 9 9 6 4 3 4 4 8 9 7 13 17 9 3 16 13 4 5 3 3 5 3 2 7 3 10 39 52 52 53 56 54 45 38 32 31 30 28 28 30 24 23 23 21 15 18 20 14 13 17 17 23
13 8 10 12 7 7 6 4 7 9 9 8 11 10 2 9 5 1 4 13 4 2 4 5 7 9 3 22 36 45 49 48 48 50 47 39 32 22 20 31 33 25 20 18 17 17 13 18 17 14 14 18 16 19
7 12 10 10 4 4 8 9 9 12 8 11 12 9 4 3 2 3 7 5 4 1 5 6 13 12 28 32 35 28 37 34 37 40 40 33 29 35 34 33 30 26 21 18 12 13 14 13 11 13 14 14 15 20
9 9 3 6 5 6 9 8 7 5 2 6 7 6 4 3 3 6 5 3 4 5 24 5 12 13 35 39 37 34 36 43 41 34 32 33 35 33 35 29 21 19 19 17 8 6 8 6 7 12 13 16 19 21
7 5 5 6 11 7 6 6 7 6 4 0 1 4 2 2 1 2 4 4 5 17 18 7 12 26 40 45 44 42 39 34 34 31 27 33 45 41 31 25 18 12 9 9 4 3 4 3 5 9 14 18 19 22
6 8 7 6 9 6 6 4 4 1 5 7 6 4 4 6 2 3 2 3 14 21 19 12 27 35 46 46 43 40 38 36 39 50 47 38 38 37 30 24 17 11 6 8 4 3 1 1 6 10 13 17 20 22
6 9 12 9 7 7 5 4 5 8 5 4 2 5 6 3 3 2 3 12 32 35 12 3 34 42 43 43 45 46 47 43 39 42 43 35 23 16 26 20 14 9 7 5 3 1 2 2 7 12 15 17 20 24
5 8 13 13 9 8 2 6 6 4 1 4 1 4 3 2 3 1 1 24 41 10 7 21 33 35 47 46 47 50 50 46 33 26 32 34 22 12 4 5 9 12 12 7 7 7 5 6 11 16 18 20 25 29
11 7 8 4 8 7 2 2 2 4 4 7 4 4 4 2 3 0 6 31 25 5 8 26 30 38 42 46 48 48 43 38 35 33 36 33 22 16 12 11 12 12 10 11 13 13 11 11 15 18 19 22 25 27
8 7 4 4 3 5 3 1 1 1 7 8 4 3 3 4 4 5 18 35 19 5 11 40 44 42 45 42 51 43 38 36 33 46 46 41 34 24 14 5 4 3 7 9 9 10 12 15 16 17 19 20 21 21
9 16 9 5 4 4 3 4 3 3 3 5 4 2 3 7 7 13 24 33 30 14 35 41 43 41 42 53 46 38 27 19 14 10 22 29 27 25 19 12 6 2 4 8 9 9 12 13 13 12 11 12 14 17
6 11 6 5 4 4 4 2 6 5 4 3 5 3 7 5 11 24 29 13 17 32 43 48 52 52 51 44 36 37 37 31 24 18 13 13 19 18 14 10 6 1 4 6 7 7 7 7 8 10 12 14 17 19
7 7 11 5 5 5 4 4 4 3 3 3 1 1 4 7 7 22 17 10 28 42 54 58 52 47 26 22 25 21 13 15 31 24 16 15 16 14 11 9 7 3 2 4 4 4 5 6 7 9 11 13 16 17
8 9 8 8 6 6 9 7 5 3 3 4 5 8 6 7 9 19 38 23 23 42 53 47 38 33 34 37 32 22 16 21 25 22 16 12 8 7 9 8 6 3 2 4 4 5 6 7 7 8 10 12 14 16
Wind_Direction_850mb
320 320 321 325 323 327 329 330 330 324 316 314 312 307 310 310 290 289 279 248 231 241 275 274 271 231 203 154 144 238 86 2 36 68 113 239 174 284 56 124 159 168 175 176 169 184 255 345 327 248 224 360 36 6
315 314 319 321 319 315 319 320 322 325 323 322 315 310 311 301 296 287 288 257 235 239 266 269 270 257 252 226 188 150 134 114 126 91 48 85 20 5 238 157 162 185 185 159 167 223 187 71 114 339 335 43 30 1
320 317 315 321 327 315 315 320 317 322 313 309 308 313 302 296 297 279 288 255 261 266 283 283 12 66 202 220 198 142 137 125 93 83 129 109 40 143 39 79 112 358 128 189 142 214 219 17 258 43 74 68 22 356
323 323 318 324 322 324 310 317 324 316 316 290 288 300 298 283 308 276 340 266 275 266 356 272 63 79 85 123 191 220 205 132 117 86 78 98 159 183 252 242 163 213 159 192 218 179 173 198 26 121 79 32 4 352
326 327 321 326 328 324 315 315 319 320 316 310 270 286 293 274 287 294 268 272 240 233 273 293 309 233 165 136 144 145 136 123 97 80 78 200 243 108 235 352 252 202 191 155 216 174 145 105 120 97 52 32 13 4
326 326 326 328 329 327 326 322 321 321 321 308 303 301 276 287 288 278 277 227 201 213 299 350 337 114 165 166 147 136 106 103 92 110 174 245 256 196 225 243 268 197 184 148 147 172 133 128 108 77 66 39 27 22
324 324 331 327 329 326 327 326 331 330 328 309 309 299 313 302 295 228 234 335 192 185 170 322 9 96 171 155 137 144 136 113 115 142 229 242 270 107 260 236 263 210 161 144 134 134 116 158 118 98 68 41 32 26
325 326 323 327 327 325 321 324 337 346 328 327 333 331 317 292 224 262 265 246 164 143 151 139 262 138 162 118 100 131 138 153 183 194 218 224 258 188 244 243 285 178 186 138 155 181 142 126 117 107 73 47 38 30
324 323 326 326 326 329 321 326 342 341 346 330 333 333 313 49 336 172 3 131 113 99 143 127 188 179 163 100 108 124 139 167 207 212 242 177 221 210 227 210 128 121 155 131 124 126 125 122 120 103 67 37 30 26
323 318 322 321 325 328 322 323 339 344 330 328 359 10 11 360 120 138 65 132 69 8 181 196 275 177 142 123 137 153 140 223 212 211 180 225 255 254 259 184 178 129 150 153 135 136 138 121 101 79 60 51 36 29
332 329 324 327 328 329 328 332 340 344 349 6 28 35 114 140 71 42 54 57 91 286 207 221 218 120 86 135 128 203 183 230 248 198 197 223 250 200 163 161 163 166 167 171 140 134 131 126 109 78 52 60 38 29
322 326 327 328 320 326 320 341 349 349 11 52 39 70 152 2 1 332 161 249 219 239 179 168 195 158 108 111 117 186 232 184 254 151 217 235 247 182 163 169 156 146 140 136 125 126 121 109 104 72 44 54 37 27
317 320 323 321 316 319 310 323 1 347 8 12 17 39 27 356 304 256 207 226 230 174 162 153 114 100 118 145 115 189 233 234 238 215 221 339 146 121 151 138 134 135 131 123 114 116 109 100 95 74 44 50 40 27
315 316 321 316 305 303 307 300 312 216 8 20 22 328 228 187 246 234 270 276 290 162 147 137 98 96 97 80 157 220 229 298 246 203 185 168 196 157 139 134 136 139 130 127 140 134 122 102 103 83 49 46 46 34
315 338 343 2 349 60 341 124 118 24 0 332 305 260 229 266 283 270 302 259 94 151 130 106 99 118 134 178 197 235 238 230 229 157 146 157 160 147 137 135 132 131 130 126 124 125 115 104 103 85 56 51 62 32
325 331 5 4 3 322 43 60 220 340 321 292 264 287 278 270 316 344 295 146 146 147 124 137 129 175 208 205 205 215 234 204 149 141 134 140 139 140 137 137 136 133 132 127 120 114 95 86 117 92 62 53 60 33
303 275 324 341 228 240 215 237 264 286 287 269 258 271 273 277 271 273 271 141 173 152 144 199 223 229 171 211 236 203 247 148 129 126 137 140 142 140 136 132 128 129 127 123 131 116 94 79 96 138 59 57 59 39
272 207 347 296 209 181 220 275 335 304 266 261 261 280 302 286 308 10 92 162 172 174 211 233 278 257 259 291 269 93 110 132 137 137 142 140 137 135 136 133 137 129 121 116 118 123 97 71 79 103 64 61 67 55
185 182 187 193 180 115 259 293 272 278 261 278 286 305 296 300 300 274 190 206 272 233 286 266 252 265 223 207 163 134 135 139 138 138 134 134 136 139 148 138 128 142 116 105 110 119 105 77 73 89 53 56 64 53
179 165 180 183 189 319 284 252 247 267 267 322 326 339 313 330 123 144 135 7 59 207 252 232 211 245 220 157 162 151 148 146 141 136 141 139 131 132 127 133 138 138 120 106 102 119 113 77 60 60 60 67 54 50
169 182 173 191 231 283 265 262 250 251 300 286 315 322 125 149 137 240 338 342 3 35 326 294 316 333 128 162 161 156 153 155 153 150 148 147 146 150 151 151 141 144 131 119 106 96 78 77 63 47 36 51 53 39
168 172 171 208 258 267 269 243 258 299 275 286 316 340 90 73 31 26 338 344 321 183 185 328 1 35 161 161 162 157 157 154 150 145 145 149 142 143 141 148 150 147 137 128 114 101 103 90 64 48 36 40 16 16
175 181 216 209 256 256 264 222 253 250 264 319 346 339 41 38 26 345 335 273 283 250 163 212 354 181 170 160 146 143 144 141 142 146 153 154 147 149 146 146 150 150 143 138 138 116 119 107 65 54 42 23 16 19
174 201 229 220 210 268 260 240 228 249 239 6 155 246 174 205 356 280 280 288 203 180 170 91 142 165 168 160 159 151 154 158 157 159 162 158 151 143 149 143 140 132 123 143 170 121 124 88 43 22 16 15 20 20
204 213 222 230 214 238 248 225 214 164 246 204 204 230 219 174 198 217 237 231 162 164 147 145 165 162 162 173 174 170 172 177 168 158 158 161 156 151 149 143 131 109 46 312 272 302 104 61 19 19 26 31 28 21
223 219 189 215 222 198 235 233 223 218 222 206 138 185 174 163 248 255 295 166 166 168 180 138 162 159 158 161 165 171 175 178 175 170 171 179 181 175 164 157 154 117 80 17 338 268 185 48 36 24 19 24 26 25
240 256 224 229 253 277 317 349 348 332 222 236 250 190 183 226 234 259 12 147 170 167 280 180 172 175 169 168 171 175 175 178 185 183 184 186 173 155 125 151 134 99 74 60 76 68 53 37 29 25 21 21 25 25
247 267 209 201 228 236 170 158 61 311 323 346 319 181 203 255 191 249 98 177 172 5 159 170 186 183 173 175 172 169 168 172 164 164 161 154 155 150 142 122 81 66 57 62 64 62 51 29 19 22 23 20 20 20
247 245 226 263 180 96 88 49 94 295 327 325 324 161 227 210 207 195 169 182 184 200 180 170 163 172 158 167 172 178 186 178 164 161 166 162 159 159 163 149 98 58 34 39 40 32 28 17 18 19 20 19 20 18
243 201 195 181 161 177 176 193 203 268 307 304 285 228 188 181 164 163 157 175 181 160 166 161 161 162 175 167 161 159 164 175 175 187 175 173 174 173 182 199 220 290 4 358 4 22 16 16 17 21 25 29 32 31
188 153 120 112 133 183 196 229 261 269 270 301 226 240 205 202 190 167 169 189 190 173 183 183 176 174 170 171 180 180 180 184 190 195 185 171 166 170 183 205 220 269 357 358 357 4 10 14 23 33 38 38 36 33
150 149 143 137 170 162 173 203 245 245 210 205 132 285 202 211 219 189 193 142 173 184 187 180 176 173 174 209 200 189 189 201 196 199 194 174 168 176 183 183 173 156 33 19 22 28 33 27 37 44 44 42 37 33
129 132 119 116 135 166 196 200 218 227 218 207 197 189 206 204 231 195 197 178 163 176 185 187 184 195 206 196 190 186 164 154 167 175 182 180 174 169 168 167 170 170 344 2 37 48 44 39 37 41 42 39 36 32